Location: Palomar Mountain Lodge
(33.3110°N, 116.8495°W)
Time: 00:09:59
(UTC-07:00)

Cosmos 1420 Rocket - Pass Details

Date: 14 June 2018
Orbit: 755 x 781 km, 74.0° (Epoch: 14 August)

Event Time Altitude Azimuth Distance (km) Brightness Sun altitude
Rises 22:35:41 0° 342° (NNW) 3,209 8.4 -25.2°
Reaches altitude 10° 22:38:03 10° 343° (NNW) 2,280 7.4 -25.5°
Maximum altitude 22:43:14 88° 256° (WSW) 758 3.8 -26.1°
Enters shadow 22:43:21 85° 193° (SSW) 760 3.8 -26.1°
